Regional Weather Roundup
Issued by NWS

Home | Current Version | Previous Version | Text Only | Print | Product List | Glossary Off
Versions: 1 2 3 4 5 6 7 8 9 10 11 12 13 14 15 16 17 18 19 20 21 22 23 24 25 26 27 28 29 30 31 32 33 34 35 36 37 38 39 40 41 42 43 44 45 46 47 48 49 50

000
ASUS43 KMPX 260601
RWRMN
WEATHER ROUNDUP FOR MINNESOTA
NATIONAL WEATHER SERVICE TWIN CITIES/CHANHASSEN MN
1200 AM CST MON JAN 26 2015


NOTE: "FAIR" INDICATES FEW OR NO CLOUDS BELOW 12,000 FEET WITH NO
SIGNIFICANT WEATHER AND/OR OBSTRUCTIONS TO VISIBILITY. N/A MEANS
CURRENT SKY AND/OR WEATHER CONDITIONS ARE NOT AVAILABLE.

MNZ060>063-068>070-260700-
   Twin Cities Metro

CITY           SKY/WX    TMP DP  RH WIND       PRES   REMARKS
TWIN CITIES    CLOUDY    22  15  75 S7        29.99F WCI  13
6HR MIN TEMP:  22; 6HR MAX TEMP:  24;

ST PAUL        CLOUDY    22  17  81 S7        30.00F WCI  13
CRYSTAL        MOCLDY    23  17  78 S7        29.96F WCI  15
BLAINE         CLOUDY    25  19  80 S6        29.96F WCI  18
LAKEVILLE      MOCLDY    19  16  86 S6        29.98F WCI  11
EDEN PRAIRIE   CLOUDY    21  17  84 S3        29.98R
6HR MIN TEMP:  20; 6HR MAX TEMP:  25;

SOUTH ST PAUL  CLOUDY    23  18  80 S3        29.98F
LAKE ELMO      FAIR      21  19  93 S5        29.99S WCI  15
$$
MNZ001>005-007-008-013>017-022>024-027-028-260700-
   Northwest Minnesota

CITY           SKY/WX    TMP DP  RH WIND       PRES   REMARKS
BEMIDJI        CLOUDY    25  17  72 S9        29.73F WCI  16
HALLOCK        CLOUDY    27  23  86 S16       29.63F WCI  14
ROSEAU         CLOUDY    27  19  74 S17       29.62F WCI  14
WARROAD        CLOUDY    25  19  80 SW9       29.65F WCI  15
THIEF RVR FALL CLOUDY    27  23  86 S21       29.65F WCI  13
CROOKSTON      CLOUDY    27  25  93 S25G31    29.66F WCI  11
FOSSTON        CLOUDY    23  19  86 S20G26    29.70F WCI   8
DETROIT LAKES  MIX PCPN  27  23  86 S14       29.76F WCI  15
MOORHEAD       CLOUDY    27  27 100 S16       29.79F WCI  14
PARK RAPIDS    CLOUDY    24  18  77 SW13      29.78F WCI  12
MAHNOMEN       CLOUDY    24  19  83 S18G25    29.75F WCI  10
$$
MNZ006-009>011-018-025>026-260700-
   North Central Minnesota

CITY           SKY/WX    TMP DP  RH WIND       PRES   REMARKS
BAUDETTE       FLURRIES  23  18  81 S13       29.67F WCI  11
FLAG ISLAND    FLURRIES  19  18  93 S14       29.63F WCI   6
INTL FALLS     LGT SNOW  23  15  71 VRB7      29.72F WCI  15
6HR MIN TEMP:  16; 6HR MAX TEMP:  23; 6HR PCP: TRACE;

WASKISH        FLURRIES  25  21  86 S7        29.70F WCI  17
BIG FORK       CLOUDY    23  18  80 S12G17    29.76F WCI  12
LONGVILLE      CLOUDY    23  19  86 S10       29.78F WCI  12
GRAND RAPIDS   CLOUDY    21  14  73 S13G18    29.79F WCI   9
CRANE LAKE     LGT SNOW  18  16  93 S3        29.81F
ORR            CLOUDY    19  12  73 S8        29.76F WCI   9
COOK           CLOUDY    19  14  79 S9        29.80F WCI   9
WALKER         CLOUDY    24  18  77 S8        29.76F WCI  16
$$
MNZ012-019>021-037-260700-
   Northeast Minnesota

CITY           SKY/WX    TMP DP  RH WIND       PRES   REMARKS
DULUTH         CLOUDY    19   9  65 S9        29.85F WCI   8
6HR MIN TEMP:  17; 6HR MAX TEMP:  20;

ELY            CLOUDY    18  12  79 S8        29.82F WCI   7
HIBBING        CLOUDY    19  12  74 S8        29.81F WCI   9
EVELETH        CLOUDY    21  14  73 S8        29.83F WCI  12
DULUTH HARBOR  CLOUDY    21  12  68 CALM      29.92F
TWO HARBORS    CLOUDY    21  16  79 S6        29.86F WCI  14
SILVER BAY     CLOUDY    19  16  86 CALM      29.87F
GRAND MARAIS     N/A     24  16  71 SW13      29.93F WCI  12
G MARAIS ARPRT FLURRIES  14  10  85 S6        29.84F WCI   5
$$
MNZ029>031-032-039>041-046>048-054>057-064-260700-
   West Central Minnesota

CITY           SKY/WX    TMP DP  RH WIND       PRES   REMARKS
FERGUS FALLS   CLOUDY    27  25  93 S9        29.90R WCI  17
WHEATON        MOCLDY    27  25  93 S7        29.88S WCI  19
MORRIS         CLOUDY    28  27  93 S9        29.85F FOG     WCI  20
ALEXANDRIA     CLOUDY    26  22  84 S10       29.86F WCI  16
ELBOW LAKE     CLOUDY    26  24  91 S8        29.88R WCI  18
WADENA         CLOUDY    25  19  80 SW10      29.82F WCI  15
GLENWOOD       CLOUDY    27  25  93 S9        29.87F WCI  17
APPLETON       CLOUDY    30  28  93 S7        29.88F WCI  23
BENSON         CLOUDY    28  27  93 SW10      29.86F WCI  19
ORTONVILLE     MOCLDY    28  27  93 S6        29.85F WCI  22
MADISON        MOCLDY    34  32  93 S7        29.88F WCI  28
WILLMAR        CLOUDY    30  27  86 CALM      29.90F
$$
MNZ033>034-036-042>043-049>051-058-059-260700-
   Central Minnesota

CITY           SKY/WX    TMP DP  RH WIND       PRES   REMARKS
ST CLOUD       CLOUDY    23  18  81 S10       29.89F WCI  12
6HR MIN TEMP:  22; 6HR MAX TEMP:  24;

SAUK CENTRE    MOCLDY    26  24  93 S9        29.88F WCI  16
PAYNESVILLE    CLOUDY    24  23  95 SE10      29.88F WCI  13
AITKIN         CLOUDY    25  18  74 S8        29.84F WCI  16
PINE RIVER     CLOUDY    25  19  80 S9        29.84F WCI  15
BRAINERD       CLOUDY    24  18  77 S10       29.86F WCI  14
STAPLES        CLOUDY    25  21  86 S9        29.82F WCI  15
LONG PRAIRIE   CLOUDY    27  23  86 S10       29.85F WCI  17
LITTLE FALLS   CLOUDY    27  19  74 S7        29.88F WCI  19
LITCHFIELD     CLOUDY    27  25  93 S3        29.93F
BUFFALO        CLOUDY    24  18  78 S5        29.97S WCI  18
MAPLE LAKE     CLOUDY    25  20  83 S9        29.94F WCI  15
$$
MNZ037-044-045-052-053-260700-
   East Central Minnesota

CITY           SKY/WX    TMP DP  RH WIND       PRES   REMARKS
PRINCETON      CLOUDY    25  18  74 S9        29.90F WCI  15
MORA           CLOUDY    21  16  79 S8        29.93F WCI  12
CAMBRIDGE      CLOUDY    25  14  63 S7        29.92F WCI  17
RUSH CITY      CLOUDY    21  15  76 S7        29.94F WCI  13
MOOSE LAKE     CLOUDY    21  14  73 S6        29.85F WCI  14
HINCKLEY       CLOUDY    23  18  80 S10       29.91F WCI  12
CLOQUET        CLOUDY    19  10  68 S7        29.85F WCI  10
MCGREGOR       CLOUDY    23  18  80 S8        29.85F WCI  14
$$
MNZ071>073-080-081-089-090-097-098-260700-
   Southwest Minnesota

CITY           SKY/WX    TMP DP  RH WIND       PRES   REMARKS
MONTEVIDEO     CLOUDY    30  30 100 SW6       29.91F WCI  24
GRANITE FALLS  CLOUDY    31  29  94 S10       29.91F WCI  22
CANBY          CLOUDY    32  30  92 S7        29.89F WCI  26
MARSHALL       CLOUDY    32  28  86 W6        29.93S WCI  26
REDWOOD FALLS  CLOUDY    31  27  85 S8        29.93F WCI  23
OLIVIA         CLOUDY    28  28 100 S7        29.92F WCI  21
PIPESTONE      CLOUDY    30  30 100 SW8       29.90F WCI  23
WINDOM         CLOUDY    30  30 100 S8        29.94F WCI  23
WORTHINGTON    CLOUDY    32  28  86 SW9       29.94F WCI  24
JACKSON        CLOUDY    32  30  93 S8        29.95F WCI  25
TRACY          CLOUDY    32  31  94 SW9       29.92S WCI  24
SLAYTON        CLOUDY    31  30  95 SW12      29.92F WCI  22
$$
MNZ065>067-074>077-082>085-091>093-260700-
   South Central Minnesota

CITY           SKY/WX    TMP DP  RH WIND       PRES   REMARKS
MANKATO        MOCLDY    25  19  80 S6        29.98S WCI  18
NEW ULM        CLOUDY    27  25  93 S10       29.96F WCI  17
ST JAMES       CLOUDY    30  28  93 S7        29.98S WCI  23
FAIRMONT       CLOUDY    28  23  80 S8        29.97F WCI  20
GLENCOE        CLOUDY    26  23  89 S3        29.96S
FARIBAULT      CLOUDY    21  18  86 S3        29.97F
OWATONNA       CLOUDY    23  19  86 S8        29.96F WCI  14
WASECA         PTCLDY    25  21  86 S6        29.98F WCI  18
ALBERT LEA     CLOUDY    23  21  93 S6        29.98F WCI  16
$$
MNZ078>079-086>088-094>096-260700-
   Southeast Minnesota

CITY           SKY/WX    TMP DP  RH WIND       PRES   REMARKS
ROCHESTER      CLOUDY    23  19  85 SW9       29.99S WCI  13
6HR MIN TEMP:  23; 6HR MAX TEMP:  24;

RED WING       CLOUDY    18  16  93 CALM      30.00F
STANTON        PTCLDY    22  18  85 S5        29.98F WCI  16
DODGE CENTER   CLOUDY    21  19  93 S7        29.97F WCI  13
WINONA         CLOUDY    19  16  86 CALM      30.04F
AUSTIN         MOCLDY    21  18  86 S5        29.99F WCI  15
PRESTON        CLOUDY    24  19  81 CALM      30.01R
$$
ABBREVIATIONS USED IN REMARKS
   TC - TEMPERATURES IN CELSIUS
  WCI - WIND CHILL INDEX
   HX - HEAT INDEX
  VSB - VISIBILITY
$$


USA.gov is the U.S. government's official web portal to all federal, state and local government web resources and services.